TimeEDT,TemperatureF,Dew PointF,Humidity,Sea Level PressureIn,VisibilityMPH,Wind Direction,Wind SpeedMPH,Gust SpeedMPH,PrecipitationIn,Events,Conditions,WindDirDegrees,DateUTC
12:15 AM,30.2,23.0,75,30.03,10.0,NW,6.9,-,N/A,,Clear,320,2013-04-05 04:15:00
12:34 AM,30.2,21.2,69,30.03,10.0,NNW,5.8,-,N/A,,Clear,330,2013-04-05 04:34:00
12:55 AM,28.4,21.2,74,30.04,10.0,NW,5.8,-,N/A,,Clear,310,2013-04-05 04:55:00
1:14 AM,28.4,21.2,74,30.04,10.0,NW,5.8,-,N/A,,Clear,310,2013-04-05 05:14:00
1:35 AM,28.4,21.2,74,30.04,10.0,NW,6.9,-,N/A,,Clear,310,2013-04-05 05:35:00
1:55 AM,28.4,21.2,74,30.05,10.0,NW,5.8,-,N/A,,Clear,320,2013-04-05 05:55:00
2:14 AM,28.4,21.2,74,30.05,10.0,NW,6.9,-,N/A,,Clear,320,2013-04-05 06:14:00
2:35 AM,28.4,19.4,69,30.06,10.0,NW,6.9,-,N/A,,Clear,320,2013-04-05 06:35:00
2:54 AM,28.4,19.4,69,30.06,10.0,NW,6.9,-,N/A,,Clear,310,2013-04-05 06:54:00
3:14 AM,26.6,17.6,69,30.07,10.0,NW,6.9,-,N/A,,Clear,310,2013-04-05 07:14:00
3:35 AM,26.6,17.6,69,30.07,10.0,WNW,5.8,-,N/A,,Clear,300,2013-04-05 07:35:00
3:54 AM,26.6,17.6,69,30.07,10.0,NW,5.8,-,N/A,,Clear,310,2013-04-05 07:54:00
4:15 AM,26.6,15.8,64,30.08,10.0,NW,6.9,-,N/A,,Clear,310,2013-04-05 08:15:00
4:34 AM,26.6,17.6,69,30.09,10.0,NW,6.9,-,N/A,,Mostly Cloudy,310,2013-04-05 08:34:00
4:55 AM,26.6,17.6,69,30.09,10.0,NW,8.1,-,N/A,,Overcast,310,2013-04-05 08:55:00
5:15 AM,26.6,17.6,69,30.11,10.0,NNW,6.9,-,N/A,,Mostly Cloudy,340,2013-04-05 09:15:00
5:34 AM,26.6,17.6,69,30.12,10.0,North,6.9,-,N/A,,Mostly Cloudy,350,2013-04-05 09:34:00
5:55 AM,26.6,17.6,69,30.13,10.0,North,8.1,-,N/A,,Overcast,350,2013-04-05 09:55:00
6:14 AM,26.6,17.6,69,30.14,10.0,North,8.1,-,N/A,,Mostly Cloudy,350,2013-04-05 10:14:00
6:34 AM,26.6,15.8,64,30.15,10.0,NNW,6.9,-,N/A,,Scattered Clouds,340,2013-04-05 10:34:00
6:55 AM,26.6,15.8,64,30.16,10.0,NNW,8.1,-,N/A,,Scattered Clouds,340,2013-04-05 10:55:00
7:14 AM,26.6,15.8,64,30.17,10.0,NNW,9.2,-,N/A,,Mostly Cloudy,340,2013-04-05 11:14:00
7:35 AM,24.8,15.8,69,30.18,10.0,NNW,4.6,-,N/A,,Mostly Cloudy,340,2013-04-05 11:35:00
7:54 AM,26.6,15.8,64,30.19,10.0,North,5.8,-,N/A,,Scattered Clouds,350,2013-04-05 11:54:00
8:14 AM,26.6,15.8,64,30.19,10.0,North,5.8,-,N/A,,Mostly Cloudy,350,2013-04-05 12:14:00
8:35 AM,26.6,15.8,64,30.20,10.0,North,8.1,-,N/A,,Mostly Cloudy,350,2013-04-05 12:35:00
8:54 AM,26.6,15.8,64,30.21,10.0,North,13.8,18.4,N/A,,Mostly Cloudy,350,2013-04-05 12:54:00
9:15 AM,28.4,15.8,59,30.22,10.0,North,11.5,-,N/A,,Mostly Cloudy,350,2013-04-05 13:15:00
9:34 AM,28.4,15.8,59,30.22,10.0,North,11.5,17.3,N/A,,Overcast,350,2013-04-05 13:34:00
9:54 AM,28.4,17.6,64,30.22,10.0,North,13.8,17.3,N/A,Snow,Snow,10,2013-04-05 13:54:00
10:15 AM,28.4,17.6,64,30.22,10.0,NNW,9.2,17.3,N/A,Snow,Light Snow,340,2013-04-05 14:15:00
10:34 AM,28.4,15.8,59,30.23,10.0,North,11.5,-,N/A,,Mostly Cloudy,350,2013-04-05 14:34:00
10:54 AM,28.4,17.6,64,30.24,10.0,NNW,10.4,-,N/A,Snow,Light Snow,340,2013-04-05 14:54:00
11:14 AM,30.2,17.6,60,30.24,10.0,North,12.7,-,N/A,,Mostly Cloudy,350,2013-04-05 15:14:00
11:35 AM,30.2,15.8,55,30.24,10.0,NNW,8.1,16.1,N/A,,Mostly Cloudy,340,2013-04-05 15:35:00
11:54 AM,32.0,15.8,51,30.23,10.0,North,9.2,16.1,N/A,,Overcast,350,2013-04-05 15:54:00
12:14 PM,32.0,12.2,44,30.23,10.0,NW,11.5,18.4,N/A,,Mostly Cloudy,310,2013-04-05 16:14:00
12:35 PM,32.0,14.0,48,30.23,10.0,NNW,8.1,18.4,N/A,,Scattered Clouds,330,2013-04-05 16:35:00
12:54 PM,32.0,14.0,48,30.23,10.0,NW,11.5,16.1,N/A,,Scattered Clouds,320,2013-04-05 16:54:00
1:14 PM,33.8,14.0,44,30.23,10.0,NW,9.2,-,N/A,,Scattered Clouds,310,2013-04-05 17:14:00
1:35 PM,33.8,12.2,41,30.22,10.0,North,12.7,-,N/A,,Scattered Clouds,350,2013-04-05 17:35:00
1:54 PM,33.8,12.2,41,30.22,10.0,North,15.0,20.7,N/A,,Clear,350,2013-04-05 17:54:00
2:15 PM,33.8,12.2,41,30.22,10.0,North,12.7,17.3,N/A,,Clear,350,2013-04-05 18:15:00
2:34 PM,33.8,14.0,44,30.22,10.0,NNW,11.5,-,N/A,,Clear,340,2013-04-05 18:34:00
2:55 PM,33.8,12.2,41,30.21,10.0,NW,11.5,17.3,N/A,,Scattered Clouds,310,2013-04-05 18:55:00
3:14 PM,35.6,14.0,41,30.20,10.0,NNW,10.4,16.1,N/A,,Scattered Clouds,340,2013-04-05 19:14:00
3:34 PM,35.6,14.0,41,30.20,10.0,NW,13.8,-,N/A,,Clear,320,2013-04-05 19:34:00
3:55 PM,35.6,15.8,44,30.19,10.0,North,12.7,17.3,N/A,,Clear,350,2013-04-05 19:55:00
4:14 PM,35.6,14.0,41,30.19,10.0,NNW,9.2,-,N/A,,Clear,340,2013-04-05 20:14:00
4:35 PM,35.6,12.2,38,30.19,10.0,NW,6.9,-,N/A,,Clear,310,2013-04-05 20:35:00
4:54 PM,35.6,6.8,30,30.19,10.0,NW,11.5,17.3,N/A,,Clear,320,2013-04-05 20:54:00
5:14 PM,35.6,8.6,33,30.19,10.0,NW,5.8,17.3,N/A,,Clear,320,2013-04-05 21:14:00
5:35 PM,35.6,6.8,30,30.20,10.0,NNW,9.2,-,N/A,,Clear,330,2013-04-05 21:35:00
5:54 PM,35.6,6.8,30,30.20,10.0,WNW,9.2,-,N/A,,Clear,290,2013-04-05 21:54:00
6:14 PM,33.8,1.4,25,30.20,10.0,NNW,3.5,-,N/A,,Clear,330,2013-04-05 22:14:00
6:35 PM,33.8,-0.4,23,30.20,10.0,NW,6.9,-,N/A,,Clear,320,2013-04-05 22:35:00
6:54 PM,33.8,1.4,25,30.21,10.0,NNW,4.6,-,N/A,,Clear,340,2013-04-05 22:54:00
7:15 PM,33.8,-0.4,23,30.20,10.0,NNW,3.5,-,N/A,,Clear,340,2013-04-05 23:15:00
7:34 PM,32.0,10.4,41,30.20,10.0,North,5.8,-,N/A,,Clear,10,2013-04-05 23:34:00
7:54 PM,30.2,8.6,40,30.20,10.0,NNE,4.6,-,N/A,,Clear,20,2013-04-05 23:54:00
8:15 PM,30.2,8.6,40,30.21,10.0,North,3.5,-,N/A,,Clear,360,2013-04-06 00:15:00
8:34 PM,30.2,8.6,40,30.21,10.0,Calm,Calm,-,N/A,,Clear,0,2013-04-06 00:34:00
8:55 PM,28.4,6.8,40,30.21,10.0,Calm,Calm,-,N/A,,Clear,0,2013-04-06 00:55:00
9:15 PM,26.6,10.4,51,30.22,10.0,Calm,Calm,-,N/A,,Clear,0,2013-04-06 01:15:00
9:34 PM,24.8,14.0,64,30.22,10.0,Calm,Calm,-,N/A,,Clear,0,2013-04-06 01:34:00
9:55 PM,26.6,12.2,55,30.22,10.0,Calm,Calm,-,N/A,,Clear,0,2013-04-06 01:55:00
10:14 PM,26.6,12.2,55,30.22,10.0,Calm,Calm,-,N/A,,Clear,0,2013-04-06 02:14:00
10:34 PM,24.8,12.2,59,30.21,10.0,Calm,Calm,-,N/A,,Clear,0,2013-04-06 02:34:00
10:55 PM,26.6,10.4,51,30.21,10.0,Calm,Calm,-,N/A,,Clear,0,2013-04-06 02:55:00
11:14 PM,24.8,14.0,64,30.20,10.0,NNE,3.5,-,N/A,,Clear,30,2013-04-06 03:14:00
11:35 PM,26.6,12.2,55,30.20,10.0,Calm,Calm,-,N/A,,Clear,0,2013-04-06 03:35:00
11:54 PM,26.6,12.2,55,30.19,10.0,NE,3.5,-,N/A,,Clear,50,2013-04-06 03:54:00